Regional Weather Roundup
Issued by NWS Upton, NY

Current Version | Previous Version | Text Only | Print | Product List | Glossary On
Versions: 1 2 3 4 5 6 7 8 9 10 11 12 13 14 15 16 17 18 19 20 21 22 23 24 25 26 27 28 29 30 31 32 33 34 35 36 37 38 39 40 41 42 43 44 45 46 47 48 49 50
000 ASUS41 KOKX 031608 RWROKX REGIONAL WEATHER ROUNDUP NATIONAL WEATHER SERVICE NEW YORK NY 1200 PM EDT FRI JUL 03 2015 NOTE: "FAIR" INDICATES FEW OR NO CLOUDS BELOW 12,000 FEET WITH NO SIGNIFICANT WEATHER AND/OR OBSTRUCTIONS TO VISIBILITY. NYZ071-072-176-178-NJZ106-104-031700- NEW YORK CITY METRO AREA CITY SKY/WX TMP DP RH WIND PRES REMARKS CENTRAL PARK SUNNY 77 50 38 E7 30.02S LAGUARDIA APRT MOSUNNY 76 49 38 W3 29.99S KENNEDY INTL MOSUNNY 80 46 30 NW7 30.00R NEWARK/LIBERTY MOSUNNY 78 49 35 VRB3G17 29.99S BRNX BOT. GARD N/A 75 48 38 N2 30.00S TETERBORO SUNNY 76 49 38 CALM 29.98S $$ NYZ177-179-078>081-031700- LONG ISLAND NEW YORK CITY SKY/WX TMP DP RH WIND PRES REMARKS FARMINGDALE SUNNY 76 49 38 N7 30.00R ISLIP MOSUNNY 76 51 41 VRB6 29.97S SHIRLEY SUNNY 76 55 48 NW6 29.99R WESTHAMPTON SUNNY 76 55 48 VRB3 29.99R MONTAUK POINT N/A 75 52 44 VRB5 29.99R $$ NYZ052-065-067-031700- HUDSON VALLEY CITY SKY/WX TMP DP RH WIND PRES REMARKS WHITE PLAINS SUNNY 74 50 42 VRB3 30.00R NEWBURGH NOT AVBL MONTGOMERY SUNNY 73 53 49 NE7 30.01S POUGHKEEPSIE SUNNY 74 53 48 VRB6 29.99F ALBANY MOSUNNY 73 43 33 CALM 30.01S $$ NJZ001-105-106-008-010-013-015-019>022-104-031700- NEW JERSEY CITY SKY/WX TMP DP RH WIND PRES REMARKS NEWARK/LIBERTY MOSUNNY 78 49 35 VRB3G17 29.99S TETERBORO SUNNY 76 49 38 CALM 29.98S CALDWELL SUNNY 75 51 43 MISG 30.00S MORRISTOWN MOSUNNY 79 55 44 CALM 30.00S SOMERVILLE SUNNY 77 50 38 NW5 29.98S SUSSEX SUNNY 73 54 51 E6 30.01S ANDOVER N/A 73 52 47 NE5 30.02S TRENTON SUNNY 77 58 51 VRB3 29.99F MILLVILLE PTSUNNY 77 62 59 CALM 30.00S ATLANTIC CITY PTSUNNY 76 64 66 E6 30.00S WRIGHTSTOWN MOSUNNY 77 61 56 VRB3 29.97F TOMS RIVER PTSUNNY 79 57 47 CALM 30.00F BELMAR SUNNY 79 57 47 NW6 30.00S $$ PAZ047>061-062-071-031700- EASTERN PENNSYLVANIA CITY SKY/WX TMP DP RH WIND PRES REMARKS PHILADELPHIA PTSUNNY 80 60 50 E5 30.00F ALLENTOWN SUNNY 74 52 46 VRB3 30.01F SCRANTON SUNNY 73 48 41 CALM 30.02F $$ CTZ002-004>006-009-010-012-RIZ004-006-007-MAZ004-011-015-031700- SOUTHERN NEW ENGLAND IN CT CITY SKY/WX TMP DP RH WIND PRES REMARKS BRADLEY INTL MOSUNNY 75 47 36 VRB3 29.98R HARTFORD SUNNY 75 51 43 VRB6 29.98R DANBURY SUNNY 72 49 44 NE8 30.01S WTRBRY/OXFORD SUNNY 72 52 49 NE8 30.02S BRIDGEPORT SUNNY 75 55 49 SE8 29.98S MERIDEN SUNNY 77 49 37 VRB3 29.98S NEW HAVEN MOSUNNY 75 56 51 S9 29.98R CHESTER FAIR 73 54 49 CALM 29.99S GROTON SUNNY 74 54 49 S9 29.96R WILLIMANTIC SUNNY 74 49 41 W6 29.98R IN RI CITY SKY/WX TMP DP RH WIND PRES REMARKS PROVIDENCE MOSUNNY 76 50 40 NE6 29.96S BLOCK ISLAND SUNNY 72 55 56 NE7 29.98R WESTERLY SUNNY 75 53 46 S10 29.98R IN MA CITY SKY/WX TMP DP RH WIND PRES REMARKS BOSTON MOSUNNY 76 49 38 CALM 29.95F WORCESTER SUNNY 72 47 40 W5 29.99S WESTFIELD SUNNY 74 49 41 CALM 29.98S PROVINCETOWN SUNNY 72 12 10 N8 29.96S NANTUCKET SUNNY 73 52 47 N15 29.95R $$ ANZ330-335-338-340-345-350-353-355-031700- COASTAL MARINE OBSERVATIONS STATION/POSITION TIME SKY/WX TEMP WIND PRES VSBY WAVE AIR SEA DIR/SP/G HT/PER (UTC) (F) (DEG/KT/KT) (MB) (MI) (FT/S) NY HARB ENTRANCE 1550 71 69 350/ 6/ 6 1015.4 2/ 8 4S FIRE IS 1503 70 N/A 2/ 8 20S FIRE ISLAND 1550 67 68 340/ 4/ 6 1015.5 2/ 8 GREAT SOUTH BAY 1500 72 75 10/ 8/ 10 N/A 23SW MTP 1550 66 67 360/ 4/ 4 1015.0 2/ 8 HUDSON CANYON NOT AVBL KINGS POINT 1500 73 66 60/ 2/ 5 1014.9 CENTRAL LI SOUND NOT AVBL EASTERN LI SOUND 1500 71 64 250/ 4/ 4 N/A ROBBINS REEF 1500 72 20/ 6/ 7 1014.5 $$ >>>>>>>>>>>>>>>>>>>>>>>>>>>> KEY <<<<<<<<<<<<<<<<<<<<<<<<<<< > < > SKY/WX - SKY CONDITION/PRESENT WEATHER < > TMP - TEMPERATURE IN FAHRENHEIT < > DP - DEWPOINT IN FAHRENHEIT < > RH - RELATIVE HUMIDITY IN PERCENT < > WIND - DIRECTION AND SPEED IN MPH < > PRES - MEAN SEA LEVEL PRESSURE IN INCHES OF HG < > WCI - WIND CHILL INDEX < > VSB - VISIBILITY IN MILES < > HX - HEAT INDEX < > TC - TEMPERATURE IN CELSIUS < > VRB - VARIABLE WIND DIRECTION < > < >>>>>>>>>>>>>>>>>>>>>>>>>>>> KEY <<<<<<<<<<<<<<<<<<<<<<<<<<<

USA.gov is the U.S. government's official web portal to all federal, state and local government web resources and services.